カタログに戻る

OPS 4682 DEB

運用中PO
NORAD 38384·DEBRIS·🇺🇸 United States

打ち上げ Apr 3, 1965 から Vandenberg Space Force Base

Loading…

次のパス (今後24時間)

TLE

最新Source: Space-Track

元期: Sep 13, 2026, 02:49 UTC

1 38384U 65027CM  26256.11741125  .00000390  00000-0  12976-2 0  9998
2 38384  90.2703  19.2515 0018551 122.4376 237.8542 12.98566729675742

AllMySatでOPS 4682 DEBをリアルタイム追跡

Download on the App Store